Weather History for Ann Arbor, MI

Change the Weather History Date:

Friday, January 17, 2014

  Actual Average Record
Temperature  
Mean Temperature 22 °F -  
Max Temperature 28 °F 26 °F 51 °F (2012)
Min Temperature 16 °F 10 °F -11 °F (2009)
Degree Days  
Heating Degree Days 42    
Moisture  
Dew Point 19 °F    
Average Humidity 79    
Maximum Humidity 93    
Minimum Humidity 67    
Precipitation  
Precipitation 0.01 in - - ()
Sea Level Pressure  
Sea Level Pressure 29.76 in    
Wind  
Wind Speed 8 mph (WSW)    
Max Wind Speed 16 mph    
Max Gust Speed 21 mph    
Visibility 7 miles    
Events Snow    
Averages and records for this station are not official NWS values.
T = Trace of Precipitation, MM = Missing Value Source: NWS Daily Summary

Daily Weather History Graph

Daily Weather History Graph

Search for Another Location

Airport:

Trip Planner

Search our weather history database for the weather conditions in past years. The results will help you decide how hot, cold, wet, or windy it might be!

Date:

Astronomy

Jan. 17, 2014 Rise Set
Actual Time 8:00 AM EST 5:30 PM EST
Civil Twilight 7:29 AM EST 6:01 PM EST
Nautical Twilight 6:54 AM EST 6:35 PM EST
Astronomical Twilight 6:21 AM EST 7:09 PM EST
Moon 7:18 PM EST (1/17) 8:25 AM EST (1/17)
Length of Visible Light 10h 31m
Length of Day
9h 30m
Full, 98% of the Moon is Illuminated
Jan 17
Full
Jan 24
Last Quarter
Jan 30
New
Feb 6
First Quarter
Feb 14
Full

Hourly Weather History & Observations

Time (EST) Temp. Windchill Dew Point Humidity Pressure Visibility Wind Dir Wind Speed Gust Speed Precip Events Conditions
12:18 AM 28.4 °F 20.4 °F 24.8 °F 86% 29.61 in 3.0 mi SSW 8.1 mph - 0.00 in Snow Light Snow
12:28 AM 28.4 °F 20.4 °F 24.8 °F 86% 29.61 in 2.5 mi SSW 8.1 mph - 0.00 in Snow Light Snow
12:42 AM 26.6 °F 17.5 °F 24.8 °F 93% 29.61 in 1.5 mi SSW 9.2 mph - 0.00 in Snow Light Snow
12:51 AM 26.6 °F 18.2 °F 24.8 °F 93% 29.61 in 1.0 mi SSW 8.1 mph - 0.00 in Snow Light Snow
12:53 AM 27.0 °F 18.7 °F 25.0 °F 92% 29.64 in 1.0 mi SSW 8.1 mph - 0.00 in Snow Light Snow
1:12 AM 26.6 °F 19.1 °F 24.8 °F 93% 29.60 in 1.2 mi SSW 6.9 mph - 0.01 in Snow Light Snow
1:17 AM 26.6 °F 19.1 °F 24.8 °F 93% 29.60 in 1.5 mi SSW 6.9 mph - 0.01 in Snow Light Snow
1:27 AM 26.6 °F 18.2 °F 24.8 °F 93% 29.60 in 2.0 mi SSW 8.1 mph - 0.01 in Snow Light Snow
1:29 AM 26.6 °F 19.1 °F 24.8 °F 93% 29.60 in 2.0 mi SSW 6.9 mph - 0.01 in Snow Light Snow
1:33 AM 26.6 °F 20.0 °F 24.8 °F 93% 29.60 in 3.0 mi SSW 5.8 mph - 0.01 in Snow Light Snow
1:53 AM 28.0 °F 20.0 °F 25.0 °F 88% 29.64 in 6.0 mi SW 8.1 mph - 0.01 in   Overcast
2:53 AM 28.9 °F 20.4 °F 25.0 °F 85% 29.65 in 9.0 mi SW 9.2 mph - N/A   Overcast
3:53 AM 28.9 °F 19.8 °F 24.1 °F 82% 29.68 in 10.0 mi SW 10.4 mph - N/A   Overcast
4:53 AM 28.0 °F 20.0 °F 21.9 °F 78% 29.69 in 10.0 mi WSW 8.1 mph - 0.00 in   Overcast
5:53 AM 26.1 °F 15.6 °F 18.0 °F 71% 29.73 in 10.0 mi West 11.5 mph - N/A   Overcast
6:53 AM 23.0 °F 13.1 °F 16.0 °F 74% 29.75 in 10.0 mi WSW 9.2 mph - N/A   Partly Cloudy
8:53 AM 21.9 °F 15.7 °F 16.0 °F 78% 29.78 in 10.0 mi SW 4.6 mph - N/A   Overcast
9:53 AM 24.1 °F 18.2 °F 18.0 °F 77% 29.79 in 10.0 mi WSW 4.6 mph - 0.00 in   Overcast
10:23 AM 24.8 °F 17.9 °F 19.4 °F 80% 29.77 in 10.0 mi SW 5.8 mph - N/A   Overcast
10:53 AM 25.0 °F 19.3 °F 19.0 °F 78% 29.80 in 10.0 mi WSW 4.6 mph - N/A   Overcast
11:34 AM 24.8 °F 19.1 °F 19.4 °F 80% 29.77 in 10.0 mi WSW 4.6 mph - N/A   Overcast
11:43 AM 26.6 °F 21.2 °F 19.4 °F 74% 29.77 in 10.0 mi WSW 4.6 mph - N/A   Overcast
11:53 AM 26.1 °F 21.9 °F 19.0 °F 75% 29.80 in 10.0 mi West 3.5 mph - N/A   Overcast
12:53 PM 27.0 °F - 19.9 °F 75% 29.79 in 10.0 mi Calm Calm - N/A   Overcast
1:19 PM 28.4 °F - 21.2 °F 74% 29.74 in 10.0 mi Calm Calm - N/A   Mostly Cloudy
1:53 PM 28.9 °F 21.9 °F 19.0 °F 67% 29.77 in 10.0 mi West 6.9 mph - N/A   Overcast
2:53 PM 28.9 °F 21.1 °F 19.9 °F 69% 29.78 in 10.0 mi West 8.1 mph - N/A   Overcast
3:53 PM 28.9 °F 19.8 °F 19.0 °F 67% 29.80 in 10.0 mi WNW 10.4 mph - N/A   Overcast
4:53 PM 28.0 °F 20.0 °F 19.9 °F 72% 29.83 in 10.0 mi West 8.1 mph - N/A   Overcast
5:53 PM 26.1 °F 17.6 °F 19.0 °F 75% 29.86 in 4.0 mi WNW 8.1 mph - 0.00 in Snow Light Snow
6:53 PM 24.1 °F 15.2 °F 17.1 °F 75% 29.88 in 9.0 mi WNW 8.1 mph - 0.00 in   Overcast
7:53 PM 23.0 °F 12.4 °F 16.0 °F 74% 29.90 in 10.0 mi WNW 10.4 mph - N/A   Overcast
8:53 PM 21.0 °F 7.6 °F 15.1 °F 78% 29.91 in 9.0 mi West 15.0 mph - 0.00 in   Overcast
9:19 PM 19.4 °F 5.5 °F 12.2 °F 74% 29.88 in 8.0 mi West 15.0 mph - 0.00 in Snow Light Snow
9:31 PM 19.4 °F 6.0 °F 12.2 °F 74% 29.88 in 10.0 mi West 13.8 mph - 0.00 in   Overcast
9:46 PM 19.4 °F 5.0 °F 12.2 °F 74% 29.88 in 9.0 mi West 16.1 mph 20.7 mph 0.00 in Snow Light Snow
9:53 PM 19.0 °F 4.5 °F 12.0 °F 74% 29.93 in 6.0 mi West 16.1 mph - 0.00 in Snow Light Snow
10:15 PM 19.4 °F 5.5 °F 10.4 °F 68% 29.90 in 7.0 mi West 15.0 mph - 0.00 in Snow Light Snow
10:53 PM 17.1 °F 3.0 °F 9.0 °F 71% 29.95 in 10.0 mi West 13.8 mph - 0.00 in   Overcast
11:53 PM 16.0 °F 3.6 °F 9.0 °F 74% 29.94 in 10.0 mi West 10.4 mph - N/A   Overcast